STARLINK-1808 (46707 NORAD) Tracking and Keplerian Element Data

This shows tracking and keplerian element data for the satellite.

Feedback or suggestion? Click here.




ElementValue
Catalog46707
NameSTARLINK-1808
Epoch Orbit1487
Epoch Day18.25002315
Epoch Year2021
RAAN19.509
Inclination53.0548
Eccentricity0.0003734
Argument of Perigee6.0349
Mean Anonmoly127.7906
Mean Motion15.59278093
Decay Rate-0.01095776
L11 46707U 20073AP 21018.25002315 -.01095776 00000-0 -15066-1 0 9992
L22 46707 53.0548 19.5090 0003734 6.0349 127.7906 15.59278093 14875

Live tracking and technical data element details for STARLINK-1808 (NORAD 46707). STARLINK-1808 can be tracked NOW for your location showing map with azimuth and elevation plus other details from your city location.

Track the satellite on the map from your city or location and see movement details for azimuth, elevation, latitude, longitude, range, height, and movement on the map or in text.







IsCatalogInMostPopularTable: catalog: 46707, numindb: 30
Update: records affected: 1



GetName: 46707 STARLINK-1808

Hit Count: updated at: Tue, 19 Jan 2021 01:21:03 GMT